Tracking 28779 objects as of 15-Apr-2024
HD Live streaming from Space Station
objects crossing your sky now

STARLINK-5222

Track STARLINK-5222 now!
10-day predictions
STARLINK-5222 is classified as:


NORAD ID: 54068
Int'l Code: 2022-136T
Perigee: 546.0 km
Apogee: 547.9 km
Inclination: 53.2 °
Period: 95.4 minutes
Semi major axis: 6917 km
RCS: Unknown
Launch date: October 20, 2022
Source: United States (US)
Launch site: AIR FORCE EASTERN TEST RANGE (AFETR)
Your satellite tracking list
Your tracking list is empty




NASA's NSSDC Master Catalog

Two Line Element Set (TLE):
1 54068U 22136T   24105.54033645  .00006112  00000-0  40197-3 0  9993
2 54068  53.2183 220.0892 0001401 101.6389 258.4760 15.08821300 82059
Source of the keplerian elements: AFSPC